Location: Sebastopol
(38.4021°N, 122.8239°W)
Time: 15:23:00
(UTC+00:00)

NOSS 8 (A) - Pass Details

Date: 29 October 2020
Orbit: 376 x 1769 km, 63.3° (Epoch: 23 November)

Event Time Altitude Azimuth Distance (km) Brightness Sun altitude
Exits shadow 12:57:47 54° 352° (N) 508 4.5 -19.6°
Drops below altitude 10° 13:00:18 10° 27° (NNE) 1,417 7.2 -19.1°
Sets 13:02:12 0° 30° (NNE) 2,247 8.3 -18.7°
